Preview of NWS' New Version of Forecast
This preview is not operational and should not be used for support decisions.

Regional Weather Roundup (RWR)

Issued by National Weather Service (NWS)

                            
000
ASUS43 KBIS 240502
RWRND 

NORTH DAKOTA REGIONAL WEATHER ROUNDUP
NATIONAL WEATHER SERVICE BISMARCK ND
1200 AM CDT WED APR 24 2019

NOTE: "FAIR" INDICATES FEW OR NO CLOUDS BELOW 12,000 FEET WITH NO
SIGNIFICANT WEATHER AND/OR OBSTRUCTIONS TO VISIBILITY.


NDZ001>003-009>011-017-240600-
NORTHWEST NORTH DAKOTA
  
CITY           SKY/WX    TMP DP  RH WIND       PRES   REMARKS
WILLISTON      PTCLDY    53  37  54 W10       29.74F                  
MINOT          CLOUDY    53  35  50 SW9       29.70S                  
MINOT AFB      CLOUDY    49  34  55 W8        29.68S                  
$$
 
NDZ018>021-031>035-040>046-240600-
SOUTHWEST NORTH DAKOTA
  
CITY           SKY/WX    TMP DP  RH WIND       PRES   REMARKS
BISMARCK       CLEAR     56  39  53 W6        29.76S                  
DICKINSON      PTCLDY    50  39  66 W9        29.79F                  
GARRISON         N/A     50  34  54 W6        29.73F                  
HETTINGER ARPT PTCLDY    45  38  76 NW3       29.84F                  
$$
 
NDZ004>008-012>016-024-026-027-054-240600-
NORTHEAST NORTH DAKOTA
  
CITY           SKY/WX    TMP DP  RH WIND       PRES   REMARKS
GRAND FORKS    CLOUDY    56  44  64 S14       29.68F                  
GRND FRKS AFB  CLOUDY    59  45  58 VRB7      29.70F                  
DEVILS LAKE    MOCLDY    53  39  59 SW9       29.68F                  
$$
 
NDZ022-023-025-028>030-036>039-047>053-240600-
SOUTHEAST NORTH DAKOTA
  
CITY           SKY/WX    TMP DP  RH WIND       PRES   REMARKS
FARGO          CLOUDY    61  43  51 S21G30    29.75F                  
JAMESTOWN      CLOUDY    56  45  66 S5        29.71F                  
$$